Temp
10 9 8 8 7 7 7 9 7 5 5 6 7 6 6 6 6 5 5 5 6 6
8 8 8 8 7 6 6 6 7 5 5 5 6 5 6 5 5 5 5 5 5 5
8 7 7 7 7 6 5 5 5 5 4 4 5 4 5 5 5 5 5 5 5 5
9 6 6 5 6 6 5 5 5 4 3 3 3 4 4 4 4 4 4 4 4 4
7 6 6 5 5 5 5 4 4 3 2 2 2 2 3 4 3 4 3 3 3 4
6 5 5 5 5 4 4 4 3 2 1 1 1 1 1 3 3 3 3 3 3 5
4 4 4 4 4 3 3 3 2 0 -0 -1 -1 0 0 2 2 2 2 2 3 1
3 3 3 3 2 2 2 1 1 -0 -1 -1 -1 -1 -1 2 2 2 1 1 -0 0
2 3 2 1 0 1 0 -0 -0 -1 -1 -2 -2 -1 1 1 2 1 -1 -2 -1 0
1 1 -0 -1 -0 -1 -1 -1 -2 -2 -2 -3 -3 -1 -1 1 0 -1 -2 -1 0 0
-1 -1 -2 -2 -2 -2 -2 -2 -3 -3 -2 -1 -1 -0 0 -1 -0 -2 -1 -0 0 1
-2 -2 -2 -3 -3 -3 -3 -3 -2 -3 -3 -2 -2 -2 -1 -1 -2 -2 -1 -1 -0 -0
-2 -3 -3 -3 -3 -3 -3 -3 -3 -4 -3 -2 -1 -2 -2 -3 -1 -2 -3 -3 -3 -2
-3 -3 -3 -3 -3 -3 -3 -3 -4 -4 -3 -4 -2 -4 -5 -4 -3 -3 -4 -4 -4 -4
Height
1406 1408 1411 1413 1415 1414 1413 1415 1424 1431 1436 1438 1444 1450 1456 1462 1468 1475 1479 1484 1489 1494
1397 1398 1400 1403 1407 1408 1409 1412 1416 1421 1427 1432 1437 1442 1448 1454 1460 1470 1476 1480 1485 1490
1388 1390 1393 1396 1399 1401 1403 1404 1410 1415 1419 1420 1424 1433 1441 1446 1453 1460 1468 1474 1482 1487
1380 1384 1386 1387 1390 1393 1396 1398 1402 1407 1413 1416 1422 1421 1431 1441 1445 1450 1460 1468 1476 1481
1374 1377 1377 1378 1380 1384 1389 1394 1396 1402 1408 1409 1417 1427 1423 1433 1440 1445 1452 1462 1470 1473
1364 1370 1369 1371 1373 1377 1381 1387 1392 1398 1402 1410 1414 1419 1427 1429 1437 1445 1449 1459 1466 1467
1357 1362 1362 1363 1366 1370 1374 1380 1388 1393 1398 1407 1415 1416 1426 1431 1430 1444 1450 1457 1458 1470
1352 1353 1354 1355 1358 1361 1367 1373 1378 1385 1392 1404 1410 1415 1425 1429 1429 1441 1447 1453 1464 1469
1344 1345 1347 1348 1351 1356 1362 1367 1374 1380 1390 1398 1406 1418 1419 1430 1425 1437 1446 1452 1461 1463
1339 1340 1342 1346 1348 1352 1358 1366 1373 1379 1387 1398 1404 1417 1421 1422 1427 1438 1445 1455 1458 1461
1336 1337 1340 1344 1348 1352 1359 1364 1372 1383 1390 1397 1406 1412 1414 1422 1429 1439 1448 1454 1457 1462
1336 1338 1341 1344 1349 1354 1361 1367 1375 1382 1388 1394 1401 1407 1416 1423 1431 1439 1446 1451 1457 1463
1339 1341 1344 1348 1352 1358 1364 1370 1377 1382 1388 1395 1402 1410 1415 1424 1431 1437 1444 1452 1458 1463
1340 1344 1347 1351 1355 1360 1366 1373 1379 1384 1390 1398 1404 1409 1418 1425 1430 1436 1443 1449 1454 1460
Wind_Speed
33 34 39 46 45 46 50 50 47 50 50 50 47 48 45 43 41 40 36 34 29 28
32 31 34 45 49 43 44 46 48 51 51 50 46 47 45 46 42 40 35 30 29 30
33 33 35 39 50 45 45 46 47 49 50 51 49 47 47 46 43 43 38 35 32 30
38 36 36 33 45 50 49 47 46 46 49 43 45 50 49 46 46 43 41 38 36 31
36 34 32 34 38 47 50 47 44 43 43 44 45 42 48 47 46 41 40 36 32 31
29 34 31 34 33 45 49 45 41 43 45 45 47 39 40 43 40 36 36 31 27 26
27 32 32 33 38 42 44 46 43 44 42 41 39 43 38 39 38 33 28 25 23 31
26 30 35 36 39 38 45 47 51 47 41 38 38 39 40 37 32 29 27 26 33 35
27 32 35 38 41 42 47 50 47 46 40 40 42 39 36 34 28 27 27 36 37 33
26 28 33 37 40 43 46 45 44 42 41 40 35 32 28 29 27 27 31 35 33 32
24 26 31 36 39 43 44 43 39 39 36 36 35 35 31 26 27 30 31 28 29 31
18 23 29 36 38 39 40 39 40 38 37 37 35 28 28 29 31 30 28 28 28 28
13 21 28 33 36 36 37 37 36 33 31 30 31 31 30 28 29 29 29 27 25 28
14 21 28 31 34 36 36 34 32 30 29 26 33 37 37 33 33 35 34 32 32 30
Wind_Direction
259 253 241 229 216 214 218 225 222 210 207 209 206 206 204 204 201 195 194 195 193 186
258 250 244 237 220 215 211 214 221 214 209 209 205 202 199 199 198 194 192 192 188 185
267 257 246 243 232 219 214 214 216 217 207 205 199 196 197 197 197 194 189 189 188 185
261 253 244 244 239 224 218 214 217 214 205 197 195 191 193 194 192 192 190 193 192 190
264 252 248 239 241 228 219 212 211 207 200 190 191 193 191 192 193 190 187 191 189 187
262 249 252 241 240 230 222 216 209 199 194 195 196 194 196 191 186 184 183 187 189 199
257 258 257 247 234 228 225 218 208 195 191 188 187 186 189 183 174 178 182 185 197 184
265 257 248 235 227 221 215 204 195 189 184 185 187 185 185 180 174 182 182 190 184 180
262 246 237 222 211 204 197 192 190 180 185 178 181 181 178 182 180 190 189 183 185 179
253 235 219 212 203 198 191 185 181 182 177 173 174 181 181 189 189 191 192 191 185 180
239 226 209 201 194 188 186 179 175 173 176 178 180 188 186 170 180 183 189 186 186 186
239 223 205 194 186 184 182 178 178 176 176 175 169 161 168 169 171 175 178 181 186 184
231 214 198 193 184 176 178 178 171 166 169 165 163 161 159 163 174 172 171 176 176 181
214 201 193 186 179 172 168 164 160 163 167 169 165 157 162 173 173 175 175 173 177 173